Location: Byszew
(52.1813°N, 19.2693°E)
Time: 19:08:19
(UTC+00:00)

Cosmos 990 Rocket - Pass Details

Date: 03 March 2021
Orbit: 746 x 769 km, 74.0° (Epoch: 17 April)

Event Time Altitude Azimuth Distance (km) Brightness Sun altitude
Rises 18:46:26 0° 336° (NNW) 3,210 7.8 -22.0°
Reaches altitude 10° 18:48:54 10° 343° (NNW) 2,285 6.9 -22.4°
Maximum altitude 18:53:53 47° 57° (ENE) 1,004 4.3 -23.1°
Enters shadow 18:53:55 47° 58° (ENE) 1,004 4.3 -23.1°
